Showing default

CENTISPACE-1 S3, 53757

Orbit data source: Space-Track

CENTISPACE-1 S3, 53757 is a payload satellite owned by Centispace (CN) in LEO that was launched on Tue, 06 Sep 2022 UTC via a KUAIZHOU-1A launch vehicle from the Jiuquan Satellite Launch Center, China (JSC). Payload-class satellites include a variety of spacecraft equipped with specific instruments for various scientific and technological missions. These include communications satellites like Starlink; space stations such as the ISS; scientific satellites like the Hubble; Earth observation satellites from companies like Planet Labs, Umbra, and HawkEye 360; GPS; miniature CubeSats for education and research; and military/defense satellites.

Loading next visibility...
Identifier
53757, 2022-108A
Orbit
LEO
Country
Flag of CNCN / PRC
Related business
Manufacturer
IMI/CAS
Mission
Operational Commercial Nav/Com
Bus & Motor
WN100, Unknown motor
Mass
97 kg wet, 97 kg dry
Launch date (UTC)
2022-09-06 (4 years ago)
Launch vehicle
KUAIZHOU-1A
Launch site
Jiuquan Satellite Launch Center, China (JSC)
Object type
Payload
Rocket body
Debris
Shape & HBR
Box + 2 Pan, 1.0 m
Radar Cross Section
0.833 m², Medium (>0.1 m² and < 1m²)

Expand to show TLE details & history
Last TLE update: 2 days ago

TLE from 2 days ago
0 CENTISPACE-1 S3
1 53757U 22108A   26171.42244306  .00000314  00000-0  10133-3 0  9991
2 53757  53.5340  41.8810 0009566   3.9650 356.1399 14.61256163202005
Epoch: 2026-06-20T10:08Z
TLE epoch observation values (Epoch: 2026-06-20T10:08:19.080Z)
Latitude
-0.00005°
Longitude
-18.83583°
Altitude
683.287 km
Speed
7.52 km/s
True Right ascension
02h 47m 31s
True Declination
0° 00' 00"
Sunlit
Object was in daylight at epoch
Visualization orbit readout
Latitude
Unknown
Longitude
Unknown
Altitude
Unknown
Speed
Unknown
Apparent Right ascension
Unknown
Apparent Declination
Unknown
Sunlit
N/A
Visualization observer readout
Local Sidereal Time
23:08:37
Azimuth
Unknown
Elevation
Unknown
Doppler factor
Unknown
Orbital elements
Apogee altitude
696.072 km
Perigee altitude
682.551 km
Semi-major axis
7,067.448 km
Eccentricity
0.00096
Inclination
53.534°
RAAN
41.881°
Arg. of periapsis
3.965°
True anomaly
356.13251°
Mean anomaly
356.1399°
Eccentric anomaly
356.13621°
Mean motion
3.653 °/min
Orbital period
98.55 mins
BSTAR
0.00010133
Loading maneuver chart data...
Computing Atmospheric mass density...
Loading historical data...
Loading historical data...
Loading historical data...
Loading historical data...
Loading historical data...
Loading historical data...
Loading historical data...
Other satellites on launch #108 in the year 2022 (2022-09-06 UTC)

Documentation

Showing up to 5 results
|